| time (UTC) | temp C | wind direction | speed KPH | gust KPH | rain 1hr cm | rain 24hr cm | rain mn cm | humidity % | barometer mb |
| 20260502205100 | 16 | 230 | 14.5 | 16.1 | 0.00 | 0.00 | 0.00 | 29 | 1015.9 |
| 20260502204556 | 16 | 236 | 4.8 | 8.0 | 0.00 | 0.00 | 0.00 | 30 | 1015.9 |
| 20260502204054 | 15 | 283 | 4.8 | 4.8 | 0.00 | 0.00 | 0.00 | 29 | 1015.9 |
| 20260502203550 | 16 | 284 | 9.7 | 11.3 | 0.00 | 0.00 | 0.00 | 30 | 1016.0 |
| 20260502203048 | 16 | 277 | 11.3 | 11.3 | 0.00 | 0.00 | 0.00 | 28 | 1016.0 |
| 20260502202543 | 16 | 277 | 8.0 | 12.9 | 0.00 | 0.00 | 0.00 | 29 | 1016.1 |
| 20260502202042 | 16 | 252 | 8.0 | 11.3 | 0.00 | 0.00 | 0.00 | 30 | 1016.3 |
| 20260502201537 | 16 | 220 | 6.4 | 8.0 | 0.00 | 0.00 | 0.00 | 29 | 1016.4 |
| 20260502201034 | 16 | 245 | 6.4 | 8.0 | 0.00 | 0.00 | 0.00 | 30 | 1016.3 |
| 20260502200530 | 15 | 240 | 6.4 | 8.0 | 0.00 | 0.00 | 0.00 | 30 | 1016.8 |
| 20260502200028 | 16 | 270 | 11.3 | 12.9 | 0.00 | 0.00 | 0.00 | 30 | 1016.9 |
| 20260502195526 | 16 | 244 | 6.4 | 9.7 | 0.00 | 0.00 | 0.00 | 31 | 1016.8 |
| 20260502195021 | 15 | 262 | 4.8 | 4.8 | 0.00 | 0.00 | 0.00 | 32 | 1016.8 |
| 20260502194518 | 15 | 268 | 12.9 | 16.1 | 0.00 | 0.00 | 0.00 | 30 | 1017.1 |
| 20260502194014 | 15 | 276 | 8.0 | 9.7 | 0.00 | 0.00 | 0.00 | 30 | 1017.2 |
| 20260502193512 | 15 | 241 | 8.0 | 11.3 | 0.00 | 0.00 | 0.00 | 31 | 1016.9 |
| 20260502193009 | 15 | 275 | 4.8 | 4.8 | 0.00 | 0.00 | 0.00 | 30 | 1017.2 |
| 20260502192505 | 15 | 282 | 8.0 | 9.7 | 0.00 | 0.00 | 0.00 | 30 | 1017.0 |
| 20260502192003 | 15 | 248 | 6.4 | 8.0 | 0.00 | 0.00 | 0.00 | 31 | 1017.4 |
| 20260502191500 | 15 | 234 | 9.7 | 11.3 | 0.00 | 0.00 | 0.00 | 30 | 1017.5 |
| 20260502190957 | 15 | 279 | 6.4 | 8.0 | 0.00 | 0.00 | 0.00 | 32 | 1017.3 |
| 20260502190454 | 15 | 253 | 14.5 | 16.1 | 0.00 | 0.00 | 0.00 | 30 | 1017.9 |
| 20260502185950 | 15 | 173 | 6.4 | 9.7 | 0.00 | 0.00 | 0.00 | 33 | 1017.7 |
| 20260502185445 | 15 | 261 | 8.0 | 9.7 | 0.00 | 0.00 | 0.00 | 30 | 1017.7 |
| 20260502184942 | 15 | 272 | 4.8 | 4.8 | 0.00 | 0.00 | 0.00 | 32 | 1018.1 |
| 20260502184438 | 15 | 253 | 11.3 | 11.3 | 0.00 | 0.00 | 0.00 | 31 | 1018.0 |
| 20260502183934 | 14 | 227 | 6.4 | 9.7 | 0.00 | 0.00 | 0.00 | 32 | 1017.8 |
| 20260502183431 | 15 | 218 | 12.9 | 14.5 | 0.00 | 0.00 | 0.00 | 32 | 1018.1 |
| 20260502182926 | 14 | 203 | 4.8 | 8.0 | 0.00 | 0.00 | 0.00 | 36 | 1017.9 |
| 20260502182422 | 14 | 311 | 8.0 | 9.7 | 0.00 | 0.00 | 0.00 | 32 | 1018.1 |
| 20260502181918 | 14 | 177 | 3.2 | 4.8 | 0.00 | 0.00 | 0.00 | 36 | 1018.4 |
| 20260502181417 | 14 | 188 | 6.4 | 9.7 | 0.00 | 0.00 | 0.00 | 31 | 1018.2 |
| 20260502180915 | 15 | 277 | 6.4 | 8.0 | 0.00 | 0.00 | 0.00 | 33 | 1018.5 |
| 20260502180412 | 14 | 226 | 9.7 | 12.9 | 0.00 | 0.00 | 0.00 | 35 | 1018.4 |
| 20260502170330 | 13 | 268 | 8.0 | 11.3 | 0.00 | 0.00 | 0.00 | 33 | 1019.1 |
| 20260502164318 | 13 | 6 | 4.8 | 4.8 | 0.00 | 0.00 | 0.00 | 32 | 1019.2 |
| 20260502163814 | 13 | 236 | 9.7 | 14.5 | 0.00 | 0.00 | 0.00 | 33 | 1019.4 |
| 20260502163310 | 13 | 275 | 6.4 | 8.0 | 0.00 | 0.00 | 0.00 | 33 | 1019.4 |
| 20260502162808 | 13 | 240 | 8.0 | 9.7 | 0.00 | 0.00 | 0.00 | 35 | 1019.1 |
| 20260502162305 | 13 | 326 | 4.8 | 9.7 | 0.00 | 0.00 | 0.00 | 34 | 1019.5 |
| 20260502161801 | 13 | 193 | 3.2 | 3.2 | 0.00 | 0.00 | 0.00 | 35 | 1019.4 |
| 20260502161257 | 12 | 225 | 4.8 | 4.8 | 0.00 | 0.00 | 0.00 | 36 | 1019.7 |
| 20260502160755 | 12 | 275 | 4.8 | 4.8 | 0.00 | 0.00 | 0.00 | 33 | 1019.7 |
| 20260502160254 | 12 | 244 | 3.2 | 3.2 | 0.00 | 0.00 | 0.00 | 35 | 1019.6 |
| 20260502152223 | 11 | 261 | 9.7 | 12.9 | 0.00 | 0.00 | 0.00 | 37 | 1019.8 |
| 20260502151721 | 11 | 320 | 3.2 | 3.2 | 0.00 | 0.00 | 0.00 | 40 | 1020.0 |
| 20260502151218 | 11 | 283 | 8.0 | 9.7 | 0.00 | 0.00 | 0.00 | 37 | 1020.0 |
| 20260502150715 | 11 | 297 | 8.0 | 9.7 | 0.00 | 0.00 | 0.00 | 40 | 1020.2 |
| 20260502150212 | 11 | 271 | 12.9 | 16.1 | 0.00 | 0.00 | 0.00 | 38 | 1020.0 |
| 20260502130601 | 6 | 286 | 6.4 | 8.0 | 0.00 | 0.00 | 0.00 | 63 | 1020.5 |
| 20260502123544 | 3 | 113 | 1.6 | 1.6 | 0.00 | 0.00 | 0.00 | 97 | 1020.5 |
| 20260502123040 | 2 | 150 | 0.0 | 0.0 | 0.00 | 0.00 | 0.00 | 97 | 1020.4 |
| 20260502122537 | 1 | 148 | 0.0 | 0.0 | 0.00 | 0.00 | 0.00 | 96 | 1020.3 |
| 20260502122034 | 0 | 149 | 0.0 | 0.0 | 0.00 | 0.00 | 0.00 | 96 | 1020.0 |
| 20260502121532 | 0 | 201 | 0.0 | 0.0 | 0.00 | 0.00 | 0.00 | 96 | 1020.4 |
| 20260502121029 | 0 | 176 | 0.0 | 0.0 | 0.00 | 0.00 | 0.00 | 95 | 1020.0 |
| 20260502120525 | -1 | 182 | 0.0 | 0.0 | 0.00 | 0.00 | 0.00 | 95 | 1020.0 |
| 20260502115520 | -1 | 182 | 0.0 | 0.0 | 0.00 | 0.00 | 0.00 | 95 | 1019.9 |
| 20260502115015 | -1 | 182 | 0.0 | 0.0 | 0.00 | 0.00 | 0.00 | 95 | 1019.9 |
| 20260502114513 | -1 | 175 | 0.0 | 0.0 | 0.00 | 0.00 | 0.00 | 95 | 1020.0 |
| 20260502114009 | -1 | 198 | 0.0 | 0.0 | 0.00 | 0.00 | 0.00 | 95 | 1019.9 |
| 20260502113507 | -1 | 182 | 0.0 | 0.0 | 0.00 | 0.00 | 0.00 | 95 | 1019.7 |
| 20260502113006 | -1 | 182 | 0.0 | 0.0 | 0.00 | 0.00 | 0.00 | 95 | 1019.8 |
| 20260502112503 | -1 | 211 | 0.0 | 0.0 | 0.00 | 0.00 | 0.00 | 95 | 1019.8 |
| 20260502112000 | -1 | 151 | 0.0 | 1.6 | 0.00 | 0.00 | 0.00 | 95 | 1019.7 |
| 20260502111457 | -2 | 182 | 0.0 | 0.0 | 0.00 | 0.00 | 0.00 | 94 | 1019.9 |
| 20260502110955 | -1 | 182 | 0.0 | 0.0 | 0.00 | 0.00 | 0.00 | 94 | 1019.7 |
| 20260502110452 | -1 | 185 | 0.0 | 0.0 | 0.00 | 0.00 | 0.00 | 94 | 1019.6 |
| 20260502105949 | -1 | 192 | 0.0 | 0.0 | 0.00 | 0.00 | 0.00 | 94 | 1019.6 |
| 20260502105447 | -1 | 190 | 0.0 | 0.0 | 0.00 | 0.00 | 0.00 | 94 | 1019.9 |
| 20260502104944 | -1 | 182 | 0.0 | 0.0 | 0.00 | 0.00 | 0.00 | 94 | 1019.7 |
| 20260502104441 | -1 | 182 | 0.0 | 0.0 | 0.00 | 0.00 | 0.00 | 94 | 1019.8 |
| 20260502103938 | -1 | 164 | 0.0 | 0.0 | 0.00 | 0.00 | 0.00 | 94 | 1019.8 |
| 20260502103436 | -1 | 146 | 0.0 | 0.0 | 0.00 | 0.00 | 0.00 | 94 | 1019.8 |
| 20260502102933 | -1 | 143 | 0.0 | 1.6 | 0.00 | 0.00 | 0.00 | 94 | 1019.8 |
| 20260502102430 | -1 | 161 | 0.0 | 0.0 | 0.00 | 0.00 | 0.00 | 93 | 1019.5 |
| 20260502101927 | -1 | 198 | 0.0 | 0.0 | 0.00 | 0.00 | 0.00 | 93 | 1019.6 |
| 20260502101425 | -1 | 198 | 0.0 | 0.0 | 0.00 | 0.00 | 0.00 | 93 | 1019.4 |
| 20260502100923 | -1 | 205 | 0.0 | 0.0 | 0.00 | 0.00 | 0.00 | 93 | 1019.7 |
| 20260502100422 | -1 | 223 | 0.0 | 0.0 | 0.00 | 0.00 | 0.00 | 93 | 1019.9 |
| 20260502091355 | -1 | 218 | 0.0 | 0.0 | 0.00 | 0.00 | 0.00 | 91 | 1019.7 |
| 20260502090853 | 0 | 158 | 0.0 | 0.0 | 0.00 | 0.00 | 0.00 | 91 | 1019.5 |
| 20260502090350 | 0 | 197 | 0.0 | 0.0 | 0.00 | 0.00 | 0.00 | 91 | 1019.6 |
| 20260502071245 | 0 | 172 | 0.0 | 0.0 | 0.00 | 0.00 | 0.00 | 84 | 1019.4 |
| 20260502070743 | 0 | 204 | 0.0 | 0.0 | 0.00 | 0.00 | 0.00 | 84 | 1019.7 |
| 20260502070240 | 0 | 204 | 0.0 | 0.0 | 0.00 | 0.00 | 0.00 | 83 | 1019.7 |
| 20260502065739 | 0 | 205 | 0.0 | 0.0 | 0.00 | 0.00 | 0.00 | 82 | 1019.6 |
| 20260502065236 | 0 | 206 | 0.0 | 0.0 | 0.00 | 0.00 | 0.00 | 82 | 1019.5 |
| 20260502064735 | 0 | 181 | 0.0 | 0.0 | 0.00 | 0.00 | 0.00 | 82 | 1019.7 |
| 20260502064232 | 0 | 170 | 0.0 | 0.0 | 0.00 | 0.00 | 0.00 | 82 | 1019.7 |
| 20260502063729 | 0 | 234 | 0.0 | 0.0 | 0.00 | 0.00 | 0.00 | 79 | 1019.7 |
| 20260502063227 | 0 | 204 | 0.0 | 0.0 | 0.00 | 0.00 | 0.00 | 79 | 1019.5 |
| 20260502062724 | 0 | 168 | 0.0 | 0.0 | 0.00 | 0.00 | 0.00 | 80 | 1019.7 |
| 20260502062222 | 0 | 241 | 0.0 | 0.0 | 0.00 | 0.00 | 0.00 | 78 | 1019.7 |
| 20260502061720 | 1 | 238 | 0.0 | 0.0 | 0.00 | 0.00 | 0.00 | 77 | 1019.8 |
| 20260502061217 | 1 | 238 | 0.0 | 0.0 | 0.00 | 0.00 | 0.00 | 77 | 1019.7 |
| 20260502060712 | 1 | 293 | 0.0 | 0.0 | 0.00 | 0.00 | 0.00 | 77 | 1019.8 |
| 20260502060209 | 1 | 199 | 0.0 | 0.0 | 0.00 | 0.00 | 0.00 | 77 | 1019.5 |
| 20260502055707 | 1 | 209 | 0.0 | 0.0 | 0.00 | 0.00 | 0.00 | 76 | 1019.7 |
| 20260502055204 | 1 | 185 | 0.0 | 0.0 | 0.00 | 0.00 | 0.00 | 75 | 1019.8 |
| 20260502054703 | 2 | 237 | 0.0 | 0.0 | 0.00 | 0.00 | 0.00 | 74 | 1019.5 |
| 20260502054200 | 1 | 268 | 0.0 | 1.6 | 0.00 | 0.00 | 0.00 | 74 | 1019.6 |
| 20260502053658 | 2 | 182 | 0.0 | 0.0 | 0.00 | 0.00 | 0.00 | 74 | 1019.4 |
| 20260502053154 | 2 | 230 | 0.0 | 0.0 | 0.00 | 0.00 | 0.00 | 73 | 1019.7 |
| 20260502052653 | 2 | 230 | 0.0 | 0.0 | 0.00 | 0.00 | 0.00 | 73 | 1019.6 |
| 20260502052151 | 2 | 225 | 0.0 | 0.0 | 0.00 | 0.00 | 0.00 | 72 | 1019.3 |
| 20260502051648 | 2 | 224 | 0.0 | 0.0 | 0.00 | 0.00 | 0.00 | 71 | 1019.6 |
| 20260502051146 | 2 | 206 | 0.0 | 0.0 | 0.00 | 0.00 | 0.00 | 71 | 1019.6 |
| 20260502050642 | 2 | 211 | 0.0 | 0.0 | 0.00 | 0.00 | 0.00 | 71 | 1019.5 |
| 20260502050139 | 2 | 217 | 0.0 | 0.0 | 0.00 | 0.00 | 0.00 | 71 | 1019.5 |
| 20260502045636 | 2 | 217 | 0.0 | 0.0 | 0.00 | 0.00 | 0.00 | 70 | 1019.4 |
| 20260502045133 | 2 | 210 | 0.0 | 0.0 | 0.00 | 0.00 | 0.00 | 71 | 1019.4 |
| 20260502044629 | 2 | 210 | 0.0 | 0.0 | 0.00 | 0.00 | 0.00 | 68 | 1019.4 |
| 20260502044126 | 2 | 197 | 0.0 | 0.0 | 0.00 | 0.00 | 0.00 | 67 | 1019.3 |
| 20260502043624 | 2 | 197 | 0.0 | 0.0 | 0.00 | 0.00 | 0.00 | 64 | 1019.2 |
| 20260502043121 | 3 | 197 | 0.0 | 0.0 | 0.00 | 0.00 | 0.00 | 64 | 1019.4 |
| 20260502042621 | 3 | 197 | 0.0 | 0.0 | 0.00 | 0.00 | 0.00 | 66 | 1019.1 |
| 20260502042118 | 3 | 190 | 0.0 | 0.0 | 0.00 | 0.00 | 0.00 | 66 | 1019.2 |
| 20260502041616 | 3 | 253 | 0.0 | 0.0 | 0.00 | 0.00 | 0.00 | 68 | 1019.1 |
| 20260502041113 | 3 | 223 | 0.0 | 0.0 | 0.00 | 0.00 | 0.00 | 63 | 1019.3 |
| 20260502040609 | 3 | 206 | 0.0 | 0.0 | 0.00 | 0.00 | 0.00 | 63 | 1019.2 |
| 20260502040107 | 3 | 198 | 0.0 | 0.0 | 0.00 | 0.00 | 0.00 | 64 | 1019.1 |
| 20260502035603 | 3 | 181 | 0.0 | 0.0 | 0.00 | 0.00 | 0.00 | 65 | 1019.3 |
| 20260502035100 | 3 | 182 | 0.0 | 0.0 | 0.00 | 0.00 | 0.00 | 66 | 1019.0 |
| 20260502034557 | 3 | 224 | 0.0 | 0.0 | 0.00 | 0.00 | 0.00 | 65 | 1019.3 |
| 20260502034056 | 3 | 207 | 0.0 | 0.0 | 0.00 | 0.00 | 0.00 | 64 | 1019.2 |
| 20260502033554 | 3 | 196 | 0.0 | 0.0 | 0.00 | 0.00 | 0.00 | 64 | 1019.1 |
| 20260502033051 | 3 | 195 | 0.0 | 0.0 | 0.00 | 0.00 | 0.00 | 65 | 1019.3 |
| 20260502032547 | 3 | 244 | 0.0 | 0.0 | 0.00 | 0.00 | 0.00 | 63 | 1019.3 |
| 20260502032043 | 3 | 249 | 0.0 | 0.0 | 0.00 | 0.00 | 0.00 | 64 | 1019.2 |
| 20260502031541 | 4 | 243 | 0.0 | 0.0 | 0.00 | 0.00 | 0.00 | 62 | 1019.1 |
| 20260502031039 | 4 | 236 | 0.0 | 0.0 | 0.00 | 0.00 | 0.00 | 62 | 1019.2 |
| 20260502030538 | 5 | 255 | 0.0 | 0.0 | 0.00 | 0.00 | 0.00 | 62 | 1019.2 |
| 20260502030035 | 4 | 278 | 0.0 | 0.0 | 0.00 | 0.00 | 0.00 | 64 | 1018.8 |
| 20260502025532 | 3 | 316 | 1.6 | 1.6 | 0.00 | 0.00 | 0.00 | 64 | 1019.1 |
| 20260502025030 | 3 | 136 | 0.0 | 0.0 | 0.00 | 0.00 | 0.00 | 63 | 1019.0 |
| 20260502024527 | 3 | 136 | 0.0 | 0.0 | 0.00 | 0.00 | 0.00 | 64 | 1018.7 |
| 20260502024026 | 3 | 136 | 0.0 | 0.0 | 0.00 | 0.00 | 0.00 | 63 | 1018.7 |
| 20260502023523 | 3 | 136 | 0.0 | 0.0 | 0.00 | 0.00 | 0.00 | 61 | 1019.1 |
| 20260502023020 | 3 | 135 | 0.0 | 0.0 | 0.00 | 0.00 | 0.00 | 59 | 1018.9 |
| 20260502022517 | 3 | 136 | 0.0 | 0.0 | 0.00 | 0.00 | 0.00 | 58 | 1018.8 |
| 20260502022014 | 4 | 135 | 0.0 | 0.0 | 0.00 | 0.00 | 0.00 | 57 | 1018.6 |
| 20260502021512 | 5 | 135 | 0.0 | 0.0 | 0.00 | 0.00 | 0.00 | 56 | 1018.6 |
| 20260502021008 | 5 | 134 | 0.0 | 0.0 | 0.00 | 0.00 | 0.00 | 55 | 1018.5 |
| 20260502020506 | 6 | 138 | 0.0 | 0.0 | 0.00 | 0.00 | 0.00 | 52 | 1018.4 |
| 20260502020003 | 6 | 125 | 0.0 | 0.0 | 0.00 | 0.00 | 0.00 | 51 | 1018.4 |
| 20260502015501 | 6 | 99 | 0.0 | 1.6 | 0.00 | 0.00 | 0.00 | 50 | 1018.4 |
| 20260502014956 | 6 | 152 | 0.0 | 0.0 | 0.00 | 0.00 | 0.00 | 51 | 1018.3 |
| 20260502014454 | 6 | 147 | 0.0 | 0.0 | 0.00 | 0.00 | 0.00 | 50 | 1018.2 |
| 20260502013950 | 7 | 147 | 0.0 | 0.0 | 0.00 | 0.00 | 0.00 | 48 | 1018.1 |
| 20260502013446 | 7 | 132 | 0.0 | 0.0 | 0.00 | 0.00 | 0.00 | 46 | 1018.2 |
| 20260502012942 | 7 | 108 | 0.0 | 0.0 | 0.00 | 0.00 | 0.00 | 46 | 1018.1 |
| 20260502012440 | 8 | 119 | 0.0 | 0.0 | 0.00 | 0.00 | 0.00 | 45 | 1018.2 |
| 20260502011938 | 8 | 77 | 0.0 | 0.0 | 0.00 | 0.00 | 0.00 | 44 | 1018.0 |
| 20260502011433 | 8 | 182 | 0.0 | 1.6 | 0.00 | 0.00 | 0.00 | 42 | 1018.0 |
| 20260502010931 | 9 | 56 | 3.2 | 4.8 | 0.00 | 0.00 | 0.00 | 40 | 1018.0 |
| 20260502010427 | 10 | 352 | 6.4 | 8.0 | 0.00 | 0.00 | 0.00 | 39 | 1017.9 |
| 20260502005923 | 10 | 346 | 8.0 | 11.3 | 0.00 | 0.00 | 0.00 | 38 | 1017.8 |
| 20260502005421 | 10 | 10 | 4.8 | 8.0 | 0.00 | 0.00 | 0.00 | 39 | 1017.6 |
| 20260502004920 | 10 | 341 | 3.2 | 4.8 | 0.00 | 0.00 | 0.00 | 39 | 1017.7 |
| 20260502004415 | 10 | 349 | 4.8 | 8.0 | 0.00 | 0.00 | 0.00 | 38 | 1017.8 |
| 20260502003912 | 10 | 338 | 8.0 | 9.7 | 0.00 | 0.00 | 0.00 | 38 | 1017.6 |
| 20260502003410 | 10 | 313 | 6.4 | 8.0 | 0.00 | 0.00 | 0.00 | 37 | 1017.4 |
| 20260502002905 | 11 | 276 | 1.6 | 3.2 | 0.00 | 0.00 | 0.00 | 37 | 1017.6 |
| 20260502002404 | 11 | 313 | 4.8 | 8.0 | 0.00 | 0.00 | 0.00 | 35 | 1017.3 |
| 20260502001901 | 11 | 351 | 3.2 | 4.8 | 0.00 | 0.00 | 0.00 | 36 | 1017.4 |
| 20260502001358 | 12 | 347 | 4.8 | 8.0 | 0.00 | 0.00 | 0.00 | 35 | 1017.4 |
| 20260502000855 | 12 | 281 | 1.6 | 1.6 | 0.00 | 0.00 | 0.00 | 35 | 1017.4 |
| 20260502000354 | 12 | 252 | 1.6 | 1.6 | 0.00 | 0.00 | 0.00 | 37 | 1017.4 |
| 20260501235849 | 11 | 70 | 3.2 | 3.2 | 0.00 | 0.00 | 0.00 | 36 | 1017.3 |
| 20260501235345 | 11 | 5 | 4.8 | 4.8 | 0.00 | 0.00 | 0.00 | 36 | 1017.2 |
| 20260501234840 | 11 | 78 | 1.6 | 3.2 | 0.00 | 0.00 | 0.00 | 35 | 1017.2 |
| 20260501234338 | 12 | 349 | 4.8 | 4.8 | 0.00 | 0.00 | 0.00 | 34 | 1017.2 |
| 20260501233836 | 12 | 93 | 4.8 | 8.0 | 0.00 | 0.00 | 0.00 | 35 | 1017.4 |
| 20260501233333 | 12 | 351 | 6.4 | 9.7 | 0.00 | 0.00 | 0.00 | 36 | 1017.3 |
| 20260501232829 | 12 | 27 | 3.2 | 3.2 | 0.00 | 0.00 | 0.00 | 35 | 1017.3 |
| 20260501232326 | 11 | 327 | 8.0 | 12.9 | 0.00 | 0.00 | 0.00 | 34 | 1017.2 |
| 20260501231824 | 11 | 75 | 3.2 | 4.8 | 0.00 | 0.00 | 0.00 | 38 | 1017.4 |
| 20260501231321 | 12 | 312 | 6.4 | 9.7 | 0.00 | 0.00 | 0.00 | 35 | 1017.2 |
| 20260501230820 | 12 | 62 | 1.6 | 1.6 | 0.00 | 0.00 | 0.00 | 40 | 1017.4 |
| 20260501230319 | 11 | 316 | 6.4 | 9.7 | 0.00 | 0.00 | 0.00 | 37 | 1017.5 |
| 20260501225816 | 11 | 335 | 11.3 | 16.1 | 0.00 | 0.00 | 0.00 | 38 | 1017.4 |
| 20260501225313 | 11 | 307 | 9.7 | 12.9 | 0.00 | 0.00 | 0.00 | 38 | 1017.2 |
| 20260501224809 | 11 | 294 | 8.0 | 9.7 | 0.00 | 0.00 | 0.00 | 37 | 1017.4 |
| 20260501224307 | 12 | 318 | 9.7 | 12.9 | 0.00 | 0.00 | 0.00 | 37 | 1017.3 |
| 20260501223803 | 13 | 330 | 12.9 | 12.9 | 0.00 | 0.00 | 0.00 | 34 | 1017.2 |
| 20260501223259 | 13 | 313 | 11.3 | 16.1 | 0.00 | 0.00 | 0.00 | 34 | 1017.4 |
| 20260501222755 | 12 | 282 | 1.6 | 3.2 | 0.00 | 0.00 | 0.00 | 41 | 1017.1 |
| 20260501222252 | 12 | 359 | 3.2 | 4.8 | 0.00 | 0.00 | 0.00 | 39 | 1017.3 |
| 20260501221749 | 12 | 61 | 4.8 | 4.8 | 0.00 | 0.00 | 0.00 | 39 | 1017.3 |
| 20260501221246 | 12 | 103 | 3.2 | 4.8 | 0.00 | 0.00 | 0.00 | 40 | 1017.3 |
| 20260501220744 | 12 | 60 | 3.2 | 3.2 | 0.00 | 0.00 | 0.00 | 39 | 1017.3 |
| 20260501220241 | 12 | 293 | 6.4 | 8.0 | 0.00 | 0.00 | 0.00 | 38 | 1017.0 |
| 20260501215738 | 12 | 254 | 6.4 | 8.0 | 0.00 | 0.00 | 0.00 | 36 | 1017.2 |
| 20260501215233 | 11 | 317 | 6.4 | 9.7 | 0.00 | 0.00 | 0.00 | 38 | 1017.1 |
| 20260501214729 | 12 | 51 | 1.6 | 3.2 | 0.00 | 0.00 | 0.00 | 39 | 1017.2 |
| 20260501214225 | 12 | 66 | 4.8 | 8.0 | 0.00 | 0.00 | 0.00 | 38 | 1017.1 |
| 20260501213721 | 12 | 253 | 3.2 | 4.8 | 0.00 | 0.00 | 0.00 | 38 | 1017.2 |
| 20260501213217 | 12 | 292 | 11.3 | 12.9 | 0.00 | 0.00 | 0.00 | 36 | 1017.2 |
| 20260501212714 | 12 | 339 | 6.4 | 8.0 | 0.00 | 0.00 | 0.00 | 38 | 1017.2 |
| 20260501212210 | 12 | 313 | 17.7 | 22.5 | 0.00 | 0.00 | 0.00 | 35 | 1017.1 |
| 20260501211707 | 12 | 277 | 8.0 | 11.3 | 0.00 | 0.00 | 0.00 | 35 | 1017.0 |
| 20260501211204 | 12 | 284 | 11.3 | 12.9 | 0.00 | 0.00 | 0.00 | 35 | 1017.2 |
| 20260501210702 | 12 | 251 | 9.7 | 11.3 | 0.00 | 0.00 | 0.00 | 36 | 1017.0 |
| 20260501210158 | 13 | 334 | 9.7 | 11.3 | 0.00 | 0.00 | 0.00 | 34 | 1017.3 |
| 20260501205654 | 12 | 342 | 9.7 | 12.9 | 0.00 | 0.00 | 0.00 | 37 | 1017.3 |